DECAYED

STARLINK-1474, 45738 (Decayed)

Orbit data source: Space-Track

STARLINK-1474, 45738 was a payload satellite owned by SpaceX/Seattle (US) in LEO that was launched on Sat, 13 Jun 2020 UTC via an FALCON 9 launch vehicle from the Air Force Eastern Test Range (AFETR). Payload-class satellites include a variety of spacecraft equipped with specific instruments for various scientific and technological missions. These include communications satellites like Starlink; space stations such as the ISS; scientific satellites like the Hubble; Earth observation satellites from companies like Planet Labs, Umbra, and HawkEye 360; GPS; miniature CubeSats for education and research; and military/defense satellites.

Not visible in the next 10 days
Identifier
45738, 2020-038J
Orbit
Decayed
Country
Flag of USUS
Related business
Manufacturer
SpaceX/Seattle
Mission
Decayed Commercial Communications
Bus & Motor
STARLINK, Unknown motor
Mass
260 kg wet, ~248 kg dry
Launch date (UTC)
2020-06-13 (6 years ago)
Launch vehicle
FALCON 9
Launch site
Air Force Eastern Test Range (AFETR)
Object type
Payload
Rocket body
Debris
Shape & HBR
Box + 1 Pan, 10.1 m
Radar Cross Section
13.562 m², Large (>1 m²)

Expand to show TLE details & history
Last TLE update: 6 months ago

TLE from 6 months ago
0 STARLINK-1474
1 45738U 20038J   26054.61794440  .10632326  12571-4  28089-3 0  9995
2 45738  53.0073 132.8690 0005025 309.4937  50.5666 16.45514130316405
Epoch: 2026-02-23T14:49Z
TLE epoch observation values (Epoch: 2026-02-23T14:49:50.396Z)
Latitude
-0.00005°
Longitude
116.89974°
Altitude
150.019 km
Speed
7.819 km/s
True Right ascension
08h 51m 28s
True Declination
0° 00' 00"
Sunlit
Object was in full shadow at epoch
Visualization orbit readout
Latitude
Unknown
Longitude
Unknown
Altitude
Unknown
Speed
Unknown
Apparent Right ascension
Unknown
Apparent Declination
Unknown
Sunlit
N/A
Visualization observer readout
Local Sidereal Time
07:18:24
Azimuth
Unknown
Elevation
Unknown
Doppler factor
Unknown
Orbital elements
Apogee altitude
154.751 km
Perigee altitude
148.189 km
Semi-major axis
6,529.607 km
Eccentricity
0.0005
Inclination
53.0073°
RAAN
132.869°
Arg. of periapsis
309.4937°
True anomaly
50.61109°
Mean anomaly
50.5666°
Eccentric anomaly
50.58884°
Mean motion
4.11351 °/min
Orbital period
87.52 mins
BSTAR
0.00028089
Loading maneuver chart data...
Computing Atmospheric mass density...

Documentation

Showing up to 5 results
|